Regional Weather Roundup
Issued by NWS

Home | Current Version | Previous Version | Graphics & Text | Print | Product List | Glossary On
Versions: 1 2 3 4 5 6 7 8 9 10 11 12 13 14 15 16 17 18 19 20 21 22 23 24 25 26 27 28 29 30 31 32 33 34 35 36 37 38 39 40 41 42 43 44 45 46 47 48 49 50
000
ASUS45 KBOU 191407
RWRCO

WEATHER ROUNDUP FOR COLORADO
NATIONAL WEATHER SERVICE DENVER/BOULDER CO
800 AM MDT SUN OCT 19 2014

NOTE: "FAIR" INDICATES FEW OR NO CLOUDS BELOW 12000 FEET WITH NO
SIGNIFICANT WEATHER AND/OR OBSTRUCTIONS TO VISIBILITY.

COZ001>005-013-030-031-191500-
...NORTHWEST COLORADO...

CITY           SKY/WX    TMP DP  RH WIND       PRES   REMARKS
CRAIG          CLEAR     29  25  85 CALM      30.22R
HAYDEN         CLEAR     37  27  65 E13       30.22S
MEEKER         PTCLDY    35  30  82 CALM      30.21R
MOUNT WERNER   NOT AVBL
STEAMBOAT SPGS CLEAR     32  28  86 CALM      30.24S
WALDEN         CLEAR     28  23  80 SE5       30.29R WCI  23
$$

COZ006>008-011-191500-
...WEST CENTRAL VALLEYS...

CITY           SKY/WX    TMP DP  RH WIND       PRES   REMARKS
GRAND JUNCTION CLOUDY    49  35  58 SE5       30.12R
MONTROSE       MOCLDY    49  38  65 SE7       30.18R
EAGLE          CLOUDY    43  36  75 CALM      30.27R
RIFLE          CLOUDY    49  39  68 CALM      30.17R
DELTA          MOCLDY    51  40  67 NE5       30.16R
NUCLA          MOCLDY    43  36  75 E8        30.20S
$$

COZ017>023-064>068-191500-
...SOUTHWEST COLORADO...

CITY           SKY/WX    TMP DP  RH WIND       PRES   REMARKS
DURANGO        CLEAR     40  36  86 CALM      30.22R
CORTEZ         CLEAR     38  34  85 E3        30.16R
PAGOSA SPRINGS CLEAR     38  37  94 CALM      30.26S
TELLURIDE      CLOUDY    44  35  70 CALM      30.33R
WOLF CREEK PAS CLEAR     34  32  93 CALM      30.44R
$$

COZ009-010-012-014-032>034-037-058>063-191500-
...CENTRAL COLORADO...

CITY           SKY/WX    TMP DP  RH WIND       PRES   REMARKS
ASPEN          CLOUDY    45  35  68 S5        30.27R
BUENA VISTA    CLOUDY    46  34  63 CALM      30.28R
COPPER MTN     CLOUDY    37  27  65 W7        30.45R
BERTHOUD PASS  FAIR      32  30  93 NE5       30.49R WCI  27
COTTONWOOD PAS CLOUDY    48  30  49 CALM      30.35S
GUNNISON       PTCLDY    37  28  70 CALM      30.30R
KREMMLING      PTCLDY    30  27  86 CALM        N/A
LEADVILLE      CLOUDY    36  29  75 CALM      30.35R
SALIDA         CLOUDY    49  36  59 CALM      30.34R
SUNLIGHT       CLOUDY    41  32  70 CALM      30.41S
WILKERSON PASS NOT AVBL
$$

COZ069>075-191500-
...SAN LUIS VALLEY/SANGRE DE CRISTO MOUNTAINS...

CITY           SKY/WX    TMP DP  RH WIND       PRES   REMARKS
ALAMOSA        MOCLDY    37  35  92 CALM      30.27R
LA VETA PASS   CLOUDY    37  34  87 S7        30.35R
SAGUACHE       CLOUDY    43  36  75 S3        30.30R
$$

COZ035-036-038>040-191500-
...NORTHERN COLORADO FRONT RANGE...

CITY           SKY/WX    TMP DP  RH WIND       PRES   REMARKS
DENVER INTL AP PTCLDY    51  35  54 SW9       30.12R
DMNS CITY PARK   N/A     48  36  63 S7        30.12S
AURORA         MOCLDY    48  35  61 S8        30.14R
FRONT RANGE AP PTCLDY    54  36  50 SW8       30.13R
ERIE MUNI ARPT PTCLDY    39  37  89 CALM      30.11R
BOULDER MUN AP PTCLDY    48  36  61 N3        30.11R
CENTENNIAL     MOCLDY    46  36  68 CALM      30.14R
BROOMFIELD     PTCLDY    55  30  38 CALM      30.13R
FORT COLLINS   CLEAR     46  37  71 NE3       30.11R
LONGMONT       CLEAR     42  35  77 CALM      30.12R
$$

COZ041-046-047-076>085-087-088-191500-
...PIKES PEAK/PALMER DIVIDE AND SOUTHERN FOOTHILLS...

CITY           SKY/WX    TMP DP  RH WIND       PRES   REMARKS
COLO. SPRINGS  MOCLDY    57  33  40 N12       30.16R
A. F. ACADEMY  MOCLDY    47  33  59 N9        30.17R
ELLICOTT       NOT AVBL
FALCON         CLOUDY    55  28  35 N8        30.19R
FORT CARSON    CLOUDY    54  36  51 NW13      30.12R
LIMON          MOCLDY    48  39  71 W9        30.11R
MONUMENT HILL  PTCLDY    45  32  61 W6        30.19R
TRINIDAD       CLEAR     50  41  71 W15       30.13R
$$

COZ042>045-048>051-090-091-191500-
...NORTHEAST COLORADO...

CITY           SKY/WX    TMP DP  RH WIND       PRES   REMARKS
GREELEY ARPT   CLEAR     39  34  81 CALM      30.10R
AKRON          CLEAR     46  40  79 W14       30.06R
BURLINGTON     CLEAR     45  40  82 W8        30.04R
WRAY           CLEAR     40  40 100 SW6       30.04R
STERLING       CLEAR     37  37 100 SW3       30.06R
HOLYOKE        CLEAR     43  41  93 NW6       30.04R
FORT MORGAN    CLEAR     43  38  82 W10       30.09R
$$

COZ086-089-092>099-191500-
...SOUTHEAST COLORADO...

CITY           SKY/WX    TMP DP  RH WIND       PRES   REMARKS
PUEBLO         CLOUDY    49  41  74 SW6       30.09R
LA JUNTA       PTCLDY    45  43  93 W9G20     30.07R
LAMAR          CLEAR     44  42  93 W7        30.04R
SPRINGFIELD      N/A     50  46  86 SW9       30.05R
$$


USA.gov is the U.S. government's official web portal to all federal, state and local government web resources and services.